UAE102 OMDB-LIMC

Flight info

Callsign UAE102
Flight time N/A
Altitude 33000
Route ANVIX L223 TARDI N629 BOTAM Y855 LAKLU/N0506F320 Q204 NALKI G652 TOKRA DCT ALROK/N0501F340 DCT BOSOB DCT ITRUX Y511 PMA Z712 WEJ L677 GESON Q777 RASDA/N0494F360 DCT OTHON DCT VAXOS DCT RDS UL609 MES DCT FSK DCT DISOR DCT LONTA UL608 DOLEV DCT VRANA DCT BAXON/N0479F370 DCT LOMED/N0427F180 M730 MIVKI T648 MEBUR
Aircraft B77W/H-SDE1E2E3FGHIJ2J3J4J5M1RWXY/LB1D1

Departure

Time 2026-04-26 12:53
Airport Dubai International Airport (OMDB)

Arrival

Time N/A
Airport Milan Malpensa International Airport (LIMC)
Time Latitude Longitude Altitude Speed Heading
2026-04-26 11:45 25.25282 55.35570 27 ft 0 kts 212°
2026-04-26 11:51 25.25283 55.35570 27 ft 0 kts 212°
2026-04-26 11:52 25.25283 55.35571 27 ft 0 kts 212°
2026-04-26 12:22 25.25284 55.35571 27 ft 0 kts 212°
2026-04-26 12:25 25.25284 55.35572 27 ft 0 kts 212°
2026-04-26 12:35 25.25287 55.35574 27 ft 3 kts 212°
2026-04-26 12:35 25.25309 55.35591 25 ft 4 kts 222°
2026-04-26 12:35 25.25327 55.35613 25 ft 4 kts 237°
2026-04-26 12:35 25.25339 55.35639 24 ft 4 kts 259°
2026-04-26 12:36 25.25338 55.35666 24 ft 3 kts 299°
2026-04-26 12:36 25.25336 55.35670 25 ft 6 kts 303°
2026-04-26 12:40 25.25347 55.35650 27 ft 11 kts 303°
2026-04-26 12:40 25.25394 55.35568 27 ft 7 kts 301°
2026-04-26 12:40 25.25399 55.35558 27 ft 0 kts 301°
2026-04-26 12:41 25.25407 55.35545 27 ft 5 kts 301°
2026-04-26 12:41 25.25434 55.35493 27 ft 11 kts 301°
2026-04-26 12:41 25.25483 55.35405 27 ft 16 kts 301°
2026-04-26 12:41 25.25519 55.35339 27 ft 10 kts 301°
2026-04-26 12:42 25.25565 55.35258 27 ft 15 kts 302°
2026-04-26 12:42 25.25628 55.35167 27 ft 13 kts 328°
2026-04-26 12:42 25.25723 55.35187 27 ft 16 kts 30°
2026-04-26 12:42 25.25815 55.35250 27 ft 16 kts 31°
2026-04-26 12:43 25.25908 55.35311 27 ft 16 kts 32°
2026-04-26 12:43 25.25974 55.35385 27 ft 10 kts 59°
2026-04-26 12:43 25.25994 55.35458 27 ft 10 kts 87°
2026-04-26 12:43 25.25981 55.35533 27 ft 10 kts 110°
2026-04-26 12:44 25.25951 55.35602 27 ft 10 kts 119°
2026-04-26 12:44 25.25909 55.35678 27 ft 15 kts 122°
2026-04-26 12:44 25.25833 55.35809 27 ft 25 kts 121°
2026-04-26 12:44 25.25735 55.35986 27 ft 24 kts 121°
2026-04-26 12:45 25.25660 55.36122 27 ft 21 kts 121°
2026-04-26 12:45 25.25585 55.36259 27 ft 21 kts 121°
2026-04-26 12:45 25.25509 55.36395 27 ft 21 kts 122°
2026-04-26 12:45 25.25433 55.36532 27 ft 21 kts 121°
2026-04-26 12:46 25.25358 55.36668 27 ft 21 kts 121°
2026-04-26 12:46 25.25282 55.36804 27 ft 21 kts 122°
2026-04-26 12:46 25.25207 55.36942 27 ft 21 kts 120°
2026-04-26 12:46 25.25131 55.37078 27 ft 21 kts 124°
2026-04-26 12:47 25.25059 55.37208 27 ft 19 kts 122°
2026-04-26 12:47 25.24990 55.37334 27 ft 19 kts 121°
2026-04-26 12:47 25.24921 55.37459 27 ft 19 kts 121°
2026-04-26 12:47 25.24852 55.37582 27 ft 19 kts 122°
2026-04-26 12:48 25.24783 55.37707 27 ft 19 kts 121°
2026-04-26 12:48 25.24714 55.37832 27 ft 19 kts 122°
2026-04-26 12:48 25.24678 55.37903 27 ft 9 kts 109°
2026-04-26 12:48 25.24684 55.37953 27 ft 7 kts 57°
2026-04-26 12:49 25.24689 55.37959 27 ft 0 kts 47°
2026-04-26 12:49 25.24691 55.37960 27 ft 3 kts 45°
2026-04-26 12:49 25.24733 55.37993 27 ft 11 kts 32°
2026-04-26 12:49 25.24803 55.38002 27 ft 11 kts 327°
2026-04-26 12:50 25.24845 55.37947 27 ft 0 kts 302°
2026-04-26 12:52 25.24847 55.37943 27 ft 6 kts 302°
2026-04-26 12:52 25.24935 55.37787 27 ft 55 kts 302°
2026-04-26 12:53 25.25302 55.37129 27 ft 148 kts 302°
2026-04-26 12:53 25.25987 55.35895 313 ft 207 kts 301°
2026-04-26 12:53 25.26717 55.34540 1425 ft 207 kts 302°
2026-04-26 12:53 25.27482 55.33157 1979 ft 209 kts 302°
2026-04-26 12:54 25.28245 55.31835 2749 ft 199 kts 302°
2026-04-26 12:54 25.28958 55.30570 3432 ft 193 kts 300°
2026-04-26 12:54 25.29310 55.29130 3709 ft 200 kts 262°
2026-04-26 12:54 25.28806 55.27720 4147 ft 197 kts 247°
2026-04-26 12:55 25.28211 55.26334 4522 ft 204 kts 249°
2026-04-26 12:55 25.27602 55.24909 4989 ft 203 kts 247°
2026-04-26 12:55 25.26994 55.23504 5373 ft 207 kts 248°
2026-04-26 12:55 25.26390 55.22092 5897 ft 199 kts 249°
2026-04-26 12:56 25.25791 55.20675 6161 ft 210 kts 248°
2026-04-26 12:56 25.25160 55.19191 6355 ft 222 kts 249°
2026-04-26 12:56 25.24436 55.17632 6557 ft 238 kts 234°
2026-04-26 12:56 25.23026 55.16565 6719 ft 260 kts 195°
2026-04-26 12:57 25.21208 55.16550 7218 ft 261 kts 176°
2026-04-26 12:57 25.19384 55.16830 7622 ft 269 kts 167°
2026-04-26 12:57 25.17720 55.17885 7775 ft 287 kts 130°
2026-04-26 12:58 25.16050 55.21883 8701 ft 292 kts 114°
2026-04-26 12:58 25.15184 55.23931 9193 ft 298 kts 117°
2026-04-26 12:58 25.14239 55.25983 9731 ft 301 kts 117°
2026-04-26 12:58 25.13254 55.28031 10271 ft 304 kts 119°
2026-04-26 12:59 25.12250 55.30058 10811 ft 308 kts 120°
2026-04-26 12:59 25.11209 55.32199 11039 ft 327 kts 118°
2026-04-26 12:59 25.10151 55.34501 11211 ft 346 kts 115°
2026-04-26 12:59 25.09154 55.36973 11609 ft 358 kts 114°
2026-04-26 13:00 25.08159 55.39497 12339 ft 360 kts 114°
2026-04-26 13:00 25.07123 55.42039 12985 ft 368 kts 115°
2026-04-26 13:00 25.06091 55.44648 13630 ft 373 kts 113°
2026-04-26 13:00 25.05116 55.47286 14463 ft 370 kts 113°
2026-04-26 13:01 25.04115 55.49924 15078 ft 376 kts 114°
2026-04-26 13:01 25.03077 55.52578 15818 ft 378 kts 114°
2026-04-26 13:01 25.01979 55.55221 16422 ft 382 kts 120°
2026-04-26 13:01 25.00567 55.57701 17148 ft 381 kts 127°
2026-04-26 13:02 24.99030 55.60018 17966 ft 379 kts 128°
2026-04-26 13:02 24.97505 55.62369 18750 ft 373 kts 130°
2026-04-26 13:02 24.95643 55.64365 18974 ft 382 kts 151°
2026-04-26 13:02 24.93171 55.65434 19213 ft 384 kts 175°
2026-04-26 13:03 24.90526 55.65325 19662 ft 383 kts 198°
2026-04-26 13:03 24.88157 55.64053 20190 ft 379 kts 221°
2026-04-26 13:03 24.86437 55.61919 20938 ft 367 kts 236°
2026-04-26 13:03 24.84833 55.59722 21453 ft 373 kts 227°
2026-04-26 13:04 24.82924 55.57724 21621 ft 387 kts 224°
2026-04-26 13:04 24.80892 55.55747 21751 ft 403 kts 223°
2026-04-26 13:04 24.78738 55.53694 21937 ft 416 kts 222°
2026-04-26 13:04 24.76527 55.51581 22266 ft 424 kts 223°
2026-04-26 13:05 24.74300 55.49425 22774 ft 428 kts 223°
2026-04-26 13:05 24.72075 55.47241 23368 ft 429 kts 223°
2026-04-26 13:05 24.69860 55.45041 23883 ft 430 kts 224°
2026-04-26 13:05 24.67643 55.42820 24264 ft 434 kts 224°
2026-04-26 13:06 24.65407 55.40568 24621 ft 438 kts 224°
2026-04-26 13:06 24.63185 55.38325 24995 ft 441 kts 224°
2026-04-26 13:06 24.60919 55.36037 25404 ft 444 kts 225°
2026-04-26 13:06 24.58636 55.33732 25793 ft 447 kts 225°
2026-04-26 13:07 24.56341 55.31415 26174 ft 450 kts 225°
2026-04-26 13:07 24.54027 55.29083 26541 ft 453 kts 225°
2026-04-26 13:07 24.51696 55.26734 26894 ft 456 kts 225°
2026-04-26 13:07 24.49353 55.24374 27241 ft 459 kts 225°
2026-04-26 13:08 24.46989 55.21995 27583 ft 462 kts 225°
2026-04-26 13:08 24.44646 55.19639 27914 ft 465 kts 225°
2026-04-26 13:08 24.42255 55.17235 28247 ft 467 kts 225°
2026-04-26 13:08 24.39852 55.14822 28552 ft 470 kts 225°
2026-04-26 13:09 24.37433 55.12393 28846 ft 472 kts 225°
2026-04-26 13:09 24.35004 55.09956 29123 ft 475 kts 226°
2026-04-26 13:09 24.32557 55.07502 29387 ft 477 kts 226°
2026-04-26 13:09 24.30100 55.05039 29650 ft 480 kts 226°
2026-04-26 13:10 24.27633 55.02567 29926 ft 481 kts 226°
2026-04-26 13:10 24.25163 55.00094 30204 ft 481 kts 226°
2026-04-26 13:10 24.22725 54.97656 30515 ft 481 kts 226°
2026-04-26 13:10 24.20256 54.95187 30802 ft 481 kts 226°
2026-04-26 13:11 24.17786 54.92719 31070 ft 481 kts 226°
2026-04-26 13:11 24.15315 54.90250 31362 ft 481 kts 227°
2026-04-26 13:11 24.12846 54.87785 31649 ft 481 kts 227°
2026-04-26 13:11 24.10374 54.85318 31919 ft 481 kts 227°
2026-04-26 13:12 24.07902 54.82853 32218 ft 481 kts 227°
2026-04-26 13:12 24.05430 54.80388 32491 ft 481 kts 227°
2026-04-26 13:12 24.02993 54.77959 32743 ft 481 kts 227°
2026-04-26 13:12 24.00509 54.75485 32790 ft 485 kts 228°
2026-04-26 13:13 23.95532 54.70533 32837 ft 482 kts 227°
2026-04-26 13:13 23.90590 54.65625 32849 ft 479 kts 228°
2026-04-26 13:14 23.85659 54.60729 32853 ft 479 kts 228°
2026-04-26 13:14 23.80767 54.55875 32862 ft 479 kts 227°
2026-04-26 13:15 23.75820 54.50972 32857 ft 480 kts 228°
2026-04-26 13:15 23.71713 54.46894 32857 ft 478 kts 230°
2026-04-26 13:16 23.69050 54.43116 32864 ft 465 kts 247°
2026-04-26 13:16 23.67779 54.39897 32867 ft 460 kts 256°
2026-04-26 13:16 23.66608 54.33173 32888 ft 455 kts 265°
2026-04-26 13:17 23.65306 54.22865 32872 ft 459 kts 265°
2026-04-26 13:18 23.63922 54.12508 32867 ft 460 kts 265°
2026-04-26 13:19 23.62522 54.02211 32868 ft 459 kts 265°
2026-04-26 13:19 23.61586 53.95347 32867 ft 457 kts 265°
2026-04-26 13:20 23.60650 53.88499 32873 ft 456 kts 265°
2026-04-26 13:20 23.59721 53.81717 32873 ft 455 kts 264°
2026-04-26 13:21 23.58784 53.74900 32874 ft 455 kts 264°
2026-04-26 13:21 23.57843 53.68083 32876 ft 455 kts 264°
2026-04-26 13:22 23.56900 53.61264 32874 ft 455 kts 264°
2026-04-26 13:22 23.55951 53.54442 32879 ft 455 kts 264°
2026-04-26 13:23 23.55006 53.47660 32878 ft 456 kts 264°
2026-04-26 13:23 23.54051 53.40829 32892 ft 456 kts 264°
2026-04-26 13:24 23.53092 53.33994 32874 ft 456 kts 264°
2026-04-26 13:24 23.52129 53.27156 32870 ft 456 kts 264°
2026-04-26 13:25 23.51171 53.20372 32873 ft 456 kts 264°
2026-04-26 13:25 23.50204 53.13544 32873 ft 456 kts 264°
2026-04-26 13:26 23.49235 53.06725 32871 ft 455 kts 264°
2026-04-26 13:26 23.48263 52.99913 32877 ft 455 kts 264°
2026-04-26 13:27 23.47296 52.93145 32871 ft 455 kts 264°
2026-04-26 13:27 23.46320 52.86341 32872 ft 455 kts 264°
2026-04-26 13:28 23.45340 52.79538 32872 ft 455 kts 264°
2026-04-26 13:28 23.44358 52.72737 32870 ft 455 kts 264°
2026-04-26 13:29 23.43374 52.65942 32872 ft 454 kts 264°
2026-04-26 13:29 23.42393 52.59189 32868 ft 454 kts 264°
2026-04-26 13:30 23.41403 52.52396 32876 ft 454 kts 264°
2026-04-26 13:30 23.40410 52.45604 32870 ft 454 kts 264°
2026-04-26 13:31 23.39414 52.38814 32873 ft 454 kts 264°
2026-04-26 13:31 23.38415 52.32025 32881 ft 454 kts 264°
2026-04-26 13:32 23.37421 52.25288 32869 ft 454 kts 264°
2026-04-26 13:32 23.36417 52.18506 32864 ft 454 kts 264°
2026-04-26 13:33 23.35410 52.11722 32868 ft 454 kts 264°
2026-04-26 13:33 23.34400 52.04938 32885 ft 454 kts 264°
2026-04-26 13:34 23.33394 51.98206 32867 ft 454 kts 264°
2026-04-26 13:34 23.32379 51.91427 32866 ft 454 kts 264°
2026-04-26 13:35 23.31361 51.84655 32880 ft 454 kts 263°
2026-04-26 13:35 23.30339 51.77877 32885 ft 454 kts 263°
2026-04-26 13:36 23.29490 51.72260 32859 ft 451 kts 263°
2026-04-26 13:36 23.28303 51.64426 32877 ft 452 kts 263°
2026-04-26 13:37 23.27275 51.57667 32869 ft 454 kts 263°
2026-04-26 13:37 23.26417 51.52036 32867 ft 454 kts 263°
2026-04-26 13:38 23.25380 51.45258 32877 ft 455 kts 263°
2026-04-26 13:38 23.24170 51.37369 32866 ft 455 kts 263°
2026-04-26 13:39 23.23126 51.30588 32881 ft 455 kts 263°
2026-04-26 13:39 23.22257 51.24957 32875 ft 454 kts 263°
2026-04-26 13:40 23.21040 51.17092 32872 ft 453 kts 263°
2026-04-26 13:40 23.20161 51.11433 32879 ft 453 kts 263°
2026-04-26 13:41 23.19118 51.04728 32871 ft 453 kts 263°
2026-04-26 13:41 23.18065 50.97984 32864 ft 452 kts 263°
2026-04-26 13:42 23.17011 50.91247 32876 ft 452 kts 263°
2026-04-26 13:42 23.15953 50.84505 32867 ft 452 kts 263°
2026-04-26 13:43 23.14899 50.77812 32864 ft 453 kts 263°
2026-04-26 13:43 23.13835 50.71068 32865 ft 453 kts 263°
2026-04-26 13:44 23.12767 50.64324 32860 ft 453 kts 263°
2026-04-26 13:44 23.11696 50.57579 32869 ft 453 kts 263°
2026-04-26 13:45 23.10622 50.50833 32869 ft 453 kts 263°
2026-04-26 13:45 23.09553 50.44136 32868 ft 453 kts 263°
2026-04-26 13:46 23.08473 50.37394 32873 ft 453 kts 263°
2026-04-26 13:46 23.07391 50.30654 32870 ft 453 kts 263°
2026-04-26 13:47 23.06306 50.23919 32873 ft 453 kts 263°
2026-04-26 13:47 23.05226 50.17230 32870 ft 453 kts 263°
2026-04-26 13:48 23.04137 50.10500 32865 ft 453 kts 263°
2026-04-26 13:48 23.03045 50.03774 32867 ft 452 kts 262°
2026-04-26 13:49 23.01949 49.97045 32868 ft 452 kts 262°
2026-04-26 13:49 23.00852 49.90326 32872 ft 452 kts 262°
2026-04-26 13:50 22.99760 49.83653 32870 ft 452 kts 262°
2026-04-26 13:50 22.98658 49.76940 32866 ft 452 kts 262°
2026-04-26 13:51 22.97553 49.70230 32865 ft 451 kts 262°
2026-04-26 13:51 22.96455 49.63576 32864 ft 451 kts 262°
2026-04-26 13:52 22.95346 49.56875 32865 ft 451 kts 262°
2026-04-26 13:52 22.94234 49.50175 32858 ft 451 kts 262°
2026-04-26 13:53 22.93120 49.43478 32865 ft 451 kts 262°
2026-04-26 13:53 22.92003 49.36782 32853 ft 451 kts 262°
2026-04-26 13:54 22.90891 49.30133 32861 ft 451 kts 262°
2026-04-26 13:54 22.89768 49.23441 32856 ft 451 kts 262°
2026-04-26 13:55 22.88270 49.14538 32856 ft 451 kts 262°
2026-04-26 13:56 22.86392 49.03419 32854 ft 451 kts 262°
2026-04-26 13:56 22.85259 48.96731 32870 ft 451 kts 262°
2026-04-26 13:57 22.84122 48.90044 32875 ft 451 kts 262°
2026-04-26 13:57 22.82983 48.83361 32873 ft 451 kts 262°
2026-04-26 13:58 22.81849 48.76720 32877 ft 451 kts 262°
2026-04-26 13:58 22.80704 48.70036 32859 ft 451 kts 262°
2026-04-26 13:59 22.79557 48.63356 32865 ft 451 kts 262°
2026-04-26 13:59 22.78406 48.56670 32872 ft 451 kts 262°
2026-04-26 14:00 22.76105 48.43355 32874 ft 451 kts 262°
2026-04-26 14:01 22.74946 48.36676 32859 ft 451 kts 262°
2026-04-26 14:01 22.73785 48.30001 32876 ft 451 kts 262°
2026-04-26 14:02 22.72621 48.23328 32873 ft 451 kts 262°
2026-04-26 14:02 22.71463 48.16701 32867 ft 451 kts 262°
2026-04-26 14:03 22.70294 48.10031 32858 ft 451 kts 262°
2026-04-26 14:03 22.69548 48.03324 32870 ft 448 kts 269°
2026-04-26 14:04 22.69740 47.96603 32877 ft 446 kts 276°
2026-04-26 14:04 22.70322 47.89954 32875 ft 447 kts 276°
2026-04-26 14:05 22.70904 47.83250 32871 ft 448 kts 276°
2026-04-26 14:05 22.71466 47.76534 32880 ft 448 kts 276°
2026-04-26 14:06 22.72019 47.69812 32876 ft 448 kts 276°
2026-04-26 14:06 22.72563 47.63131 32885 ft 448 kts 276°
2026-04-26 14:07 22.73110 47.56406 32883 ft 448 kts 275°
2026-04-26 14:07 22.73653 47.49686 32876 ft 448 kts 275°
2026-04-26 14:08 22.74194 47.42964 32885 ft 448 kts 275°
2026-04-26 14:08 22.74731 47.36247 32886 ft 447 kts 275°
2026-04-26 14:09 22.75261 47.29587 32892 ft 447 kts 275°
2026-04-26 14:09 22.75793 47.22874 32903 ft 447 kts 275°
2026-04-26 14:10 22.76322 47.16164 32902 ft 447 kts 275°
2026-04-26 14:10 22.76859 47.09453 32902 ft 447 kts 275°
2026-04-26 14:11 22.77659 46.99440 32917 ft 447 kts 275°
2026-04-26 14:11 22.78190 46.92733 32902 ft 447 kts 275°
2026-04-26 14:12 22.78717 46.86026 32916 ft 447 kts 275°
2026-04-26 14:12 22.79239 46.79367 32916 ft 446 kts 275°
2026-04-26 14:13 22.80019 46.69323 32922 ft 446 kts 275°
2026-04-26 14:14 22.80536 46.62626 32925 ft 446 kts 275°
2026-04-26 14:14 22.81050 46.55931 32926 ft 445 kts 275°
2026-04-26 14:15 22.81561 46.49243 32932 ft 445 kts 275°
2026-04-26 14:15 22.82066 46.42596 32932 ft 445 kts 275°
2026-04-26 14:16 22.82570 46.35905 32929 ft 445 kts 275°
2026-04-26 14:16 22.83064 46.29215 32931 ft 445 kts 275°
2026-04-26 14:17 22.83555 46.22523 32926 ft 445 kts 275°
2026-04-26 14:17 22.84040 46.15881 32934 ft 445 kts 275°
2026-04-26 14:18 22.84526 46.09190 32928 ft 445 kts 275°
2026-04-26 14:18 22.85011 46.02492 32916 ft 446 kts 275°
2026-04-26 14:19 22.85492 45.95800 32918 ft 445 kts 275°
2026-04-26 14:19 22.85966 45.89159 32912 ft 445 kts 275°
2026-04-26 14:20 22.86441 45.82472 32912 ft 445 kts 275°
2026-04-26 14:20 22.86913 45.75788 32908 ft 444 kts 274°
2026-04-26 14:21 22.87382 45.69112 32905 ft 444 kts 274°
2026-04-26 14:21 22.87845 45.62476 32909 ft 444 kts 274°
2026-04-26 14:22 22.88307 45.55807 32906 ft 444 kts 274°
2026-04-26 14:22 22.88767 45.49132 32904 ft 444 kts 274°
2026-04-26 14:23 22.89223 45.42466 32905 ft 443 kts 274°
2026-04-26 14:23 22.89677 45.35799 32915 ft 443 kts 274°
2026-04-26 14:24 22.90126 45.29175 32904 ft 443 kts 274°
2026-04-26 14:24 22.90574 45.22507 32904 ft 443 kts 274°
2026-04-26 14:25 22.91019 45.15846 32906 ft 442 kts 274°
2026-04-26 14:25 22.91461 45.09200 32905 ft 442 kts 274°
2026-04-26 14:26 22.91897 45.02599 32907 ft 441 kts 274°
2026-04-26 14:26 22.92334 44.95962 32913 ft 441 kts 274°
2026-04-26 14:27 22.92767 44.89326 32904 ft 441 kts 274°
2026-04-26 14:27 22.93198 44.82692 32910 ft 440 kts 274°
2026-04-26 14:28 22.93623 44.76108 32908 ft 440 kts 274°
2026-04-26 14:28 22.94135 44.69497 32908 ft 440 kts 278°
2026-04-26 14:29 22.95427 44.63004 32906 ft 441 kts 285°
2026-04-26 14:29 22.97380 44.56685 32908 ft 442 kts 287°
2026-04-26 14:30 22.99347 44.50414 32904 ft 442 kts 287°
2026-04-26 14:30 23.01311 44.44090 32908 ft 442 kts 286°
2026-04-26 14:31 23.03263 44.37757 32906 ft 443 kts 286°
2026-04-26 14:31 23.05213 44.31413 32910 ft 443 kts 286°
2026-04-26 14:32 23.07148 44.25110 32910 ft 443 kts 286°
2026-04-26 14:32 23.09095 44.18758 32918 ft 443 kts 286°
2026-04-26 14:33 23.11039 44.12405 32912 ft 443 kts 286°
2026-04-26 14:33 23.12981 44.06047 32912 ft 443 kts 286°
2026-04-26 14:34 23.14918 43.99697 32921 ft 443 kts 286°
2026-04-26 14:34 23.16839 43.93393 32923 ft 442 kts 286°
2026-04-26 14:35 23.18768 43.87047 32923 ft 442 kts 286°
2026-04-26 14:35 23.20692 43.80709 32935 ft 441 kts 285°
2026-04-26 14:36 23.22598 43.74420 32938 ft 441 kts 285°
2026-04-26 14:36 23.24512 43.68095 32942 ft 441 kts 285°
2026-04-26 14:37 23.26424 43.61765 32945 ft 441 kts 285°
2026-04-26 14:37 23.28333 43.55435 32953 ft 440 kts 285°
2026-04-26 14:38 23.30236 43.49107 32959 ft 440 kts 285°
2026-04-26 14:38 23.32120 43.42828 32965 ft 439 kts 285°
2026-04-26 14:39 23.34012 43.36510 32968 ft 439 kts 285°
2026-04-26 14:39 23.35900 43.30198 32981 ft 438 kts 285°
2026-04-26 14:40 23.37785 43.23885 32980 ft 438 kts 285°
2026-04-26 14:40 23.39652 43.17623 32986 ft 438 kts 285°
2026-04-26 14:41 23.41528 43.11316 32996 ft 438 kts 285°
2026-04-26 14:41 23.43394 43.05003 33005 ft 438 kts 285°
2026-04-26 14:42 23.45247 42.98719 32995 ft 439 kts 285°
2026-04-26 14:42 23.47109 42.92395 32999 ft 439 kts 285°
2026-04-26 14:43 23.48972 42.86061 33000 ft 439 kts 285°
2026-04-26 14:43 23.50832 42.79727 33000 ft 439 kts 285°
2026-04-26 14:44 23.52693 42.73387 33004 ft 439 kts 285°
2026-04-26 14:44 23.54553 42.67091 33008 ft 439 kts 285°
2026-04-26 14:45 23.56426 42.60749 33013 ft 439 kts 285°
2026-04-26 14:45 23.58295 42.54405 33010 ft 439 kts 285°
2026-04-26 14:46 23.60159 42.48063 33018 ft 439 kts 285°
2026-04-26 14:46 23.62007 42.41764 33016 ft 439 kts 284°
2026-04-26 14:47 23.63864 42.35425 33022 ft 439 kts 284°
2026-04-26 14:47 23.65719 42.29083 33021 ft 439 kts 284°
2026-04-26 14:48 23.67557 42.22736 33025 ft 439 kts 284°
2026-04-26 14:48 23.69369 42.16430 33026 ft 439 kts 284°
2026-04-26 14:49 23.71193 42.10081 33027 ft 439 kts 284°
2026-04-26 14:49 23.73017 42.03730 33027 ft 438 kts 284°
2026-04-26 14:50 23.74839 41.97381 33031 ft 438 kts 284°
2026-04-26 14:50 23.76672 41.91078 33025 ft 438 kts 284°
2026-04-26 14:51 23.78518 41.84734 33024 ft 439 kts 284°
2026-04-26 14:51 23.80358 41.78385 33025 ft 439 kts 284°
2026-04-26 14:52 23.82190 41.72031 33013 ft 439 kts 284°
2026-04-26 14:52 23.84003 41.65714 33014 ft 439 kts 284°
2026-04-26 14:53 23.85828 41.59350 33009 ft 439 kts 284°
2026-04-26 14:53 23.87648 41.52990 33007 ft 439 kts 284°
2026-04-26 14:54 23.89465 41.46621 33003 ft 439 kts 284°
2026-04-26 14:54 23.91277 41.40256 33004 ft 439 kts 284°
2026-04-26 14:55 23.93074 41.33938 32991 ft 438 kts 284°
2026-04-26 14:55 23.94880 41.27570 32993 ft 438 kts 284°
2026-04-26 14:56 23.96684 41.21202 32984 ft 438 kts 284°
2026-04-26 14:56 23.98483 41.14835 32981 ft 438 kts 284°
2026-04-26 14:57 24.00267 41.08511 32972 ft 438 kts 284°
2026-04-26 14:57 24.02063 41.02137 32969 ft 438 kts 284°
2026-04-26 14:58 24.03856 40.95761 32960 ft 439 kts 284°
2026-04-26 14:58 24.05646 40.89381 32957 ft 439 kts 284°
2026-04-26 14:59 24.07418 40.83048 32954 ft 438 kts 284°
2026-04-26 14:59 24.09200 40.76668 32946 ft 438 kts 284°
2026-04-26 15:00 24.10979 40.70291 32949 ft 438 kts 284°
2026-04-26 15:00 24.12752 40.63921 32936 ft 438 kts 284°
2026-04-26 15:01 24.14511 40.57594 32931 ft 437 kts 284°
2026-04-26 15:01 24.16438 40.51272 32933 ft 439 kts 288°
2026-04-26 15:02 24.19152 40.45252 32942 ft 442 kts 293°
2026-04-26 15:02 24.22030 40.39305 32935 ft 442 kts 293°
2026-04-26 15:03 24.24868 40.33391 32934 ft 441 kts 293°
2026-04-26 15:03 24.27715 40.27429 32936 ft 441 kts 293°
2026-04-26 15:04 24.30553 40.21473 32935 ft 440 kts 293°
2026-04-26 15:04 24.33386 40.15521 32940 ft 440 kts 293°
2026-04-26 15:05 24.36195 40.09613 32938 ft 440 kts 293°
2026-04-26 15:05 24.39021 40.03661 32943 ft 440 kts 292°
2026-04-26 15:06 24.41842 39.97714 32942 ft 439 kts 292°
2026-04-26 15:06 24.44657 39.91770 32952 ft 438 kts 292°
2026-04-26 15:07 24.48847 39.82909 32954 ft 438 kts 292°
2026-04-26 15:07 24.51653 39.76967 32941 ft 438 kts 292°
2026-04-26 15:08 24.55111 39.71395 32944 ft 448 kts 304°
2026-04-26 15:08 24.59551 39.66522 32939 ft 458 kts 314°
2026-04-26 15:09 24.64678 39.62407 32943 ft 460 kts 316°
2026-04-26 15:09 24.69894 39.58340 32949 ft 459 kts 316°
2026-04-26 15:10 24.74207 39.54939 32957 ft 458 kts 316°
2026-04-26 15:10 24.80238 39.50128 32958 ft 458 kts 316°
2026-04-26 15:11 24.85356 39.46027 32959 ft 458 kts 315°
2026-04-26 15:11 24.90510 39.41893 32957 ft 458 kts 315°
2026-04-26 15:12 24.95662 39.37760 32951 ft 458 kts 315°
2026-04-26 15:12 25.00813 39.33624 32954 ft 458 kts 315°
2026-04-26 15:13 25.05964 39.29484 32954 ft 458 kts 315°
2026-04-26 15:13 25.11074 39.25370 32951 ft 458 kts 315°
2026-04-26 15:14 25.16220 39.21226 32954 ft 458 kts 315°
2026-04-26 15:14 25.21026 39.16750 32960 ft 446 kts 306°
2026-04-26 15:15 25.25015 39.11631 32947 ft 439 kts 299°
2026-04-26 15:15 25.28361 39.06028 32940 ft 437 kts 296°
2026-04-26 15:16 25.31634 39.00356 32960 ft 438 kts 296°
2026-04-26 15:16 25.34934 38.94671 32939 ft 440 kts 296°
2026-04-26 15:17 25.37687 38.89945 32933 ft 440 kts 296°
2026-04-26 15:17 25.41537 38.83347 32924 ft 439 kts 296°
2026-04-26 15:18 25.44839 38.77686 32920 ft 437 kts 296°
2026-04-26 15:18 25.48125 38.72041 32923 ft 436 kts 296°
2026-04-26 15:19 25.51405 38.66398 32915 ft 435 kts 296°
2026-04-26 15:19 25.54657 38.60796 32912 ft 435 kts 296°
2026-04-26 15:20 25.57928 38.55152 32905 ft 436 kts 296°
2026-04-26 15:20 25.61203 38.49497 32901 ft 436 kts 296°
2026-04-26 15:21 25.64478 38.43836 32904 ft 436 kts 296°
2026-04-26 15:21 25.67730 38.38208 32899 ft 436 kts 296°
2026-04-26 15:22 25.71002 38.32538 32897 ft 437 kts 296°
2026-04-26 15:22 25.74273 38.26863 32894 ft 437 kts 296°
2026-04-26 15:23 25.77538 38.21191 32891 ft 436 kts 296°
2026-04-26 15:23 25.80768 38.15575 32893 ft 434 kts 296°
2026-04-26 15:24 25.84003 38.09944 32906 ft 433 kts 296°
2026-04-26 15:24 25.87238 38.04300 32911 ft 434 kts 295°
2026-04-26 15:25 25.89931 37.99597 32919 ft 435 kts 295°
2026-04-26 15:25 25.93700 37.93009 32938 ft 435 kts 295°
2026-04-26 15:26 25.96948 37.87324 32941 ft 436 kts 295°
2026-04-26 15:26 25.99595 37.81355 32941 ft 427 kts 285°
2026-04-26 15:27 26.01341 37.75088 32953 ft 422 kts 278°
2026-04-26 15:27 26.02253 37.68666 32943 ft 421 kts 275°
2026-04-26 15:28 26.03082 37.62265 32949 ft 421 kts 275°
2026-04-26 15:28 26.03948 37.55829 32945 ft 421 kts 275°
2026-04-26 15:29 26.04823 37.49395 32933 ft 421 kts 275°
2026-04-26 15:30 26.06536 37.36539 32941 ft 423 kts 275°
2026-04-26 15:30 26.07392 37.30062 32924 ft 424 kts 275°
2026-04-26 15:31 26.08672 37.20349 32921 ft 422 kts 275°
2026-04-26 15:32 26.09801 37.11749 32918 ft 422 kts 275°
2026-04-26 15:32 26.10782 37.04237 32913 ft 422 kts 275°
2026-04-26 15:33 26.11624 36.97778 32908 ft 422 kts 275°
2026-04-26 15:33 26.12461 36.91324 32904 ft 421 kts 275°
2026-04-26 15:34 26.13288 36.84915 32896 ft 421 kts 275°
2026-04-26 15:34 26.14120 36.78462 32889 ft 421 kts 275°
2026-04-26 15:35 26.14947 36.72008 32874 ft 421 kts 275°
2026-04-26 15:35 26.15771 36.65561 32864 ft 421 kts 275°
2026-04-26 15:36 26.16587 36.59163 32863 ft 420 kts 275°
2026-04-26 15:36 26.17673 36.52778 32852 ft 425 kts 286°
2026-04-26 15:37 26.20712 36.47039 32855 ft 437 kts 300°
2026-04-26 15:37 26.25224 36.42353 32885 ft 454 kts 316°
2026-04-26 15:38 26.30495 36.38441 32870 ft 456 kts 317°
2026-04-26 15:38 26.35756 36.34585 32873 ft 455 kts 316°
2026-04-26 15:39 26.41012 36.30652 32881 ft 455 kts 316°
2026-04-26 15:39 26.45358 36.27357 32887 ft 455 kts 316°
2026-04-26 15:40 26.51465 36.22701 32886 ft 455 kts 316°
2026-04-26 15:40 26.56654 36.18740 32883 ft 455 kts 316°
2026-04-26 15:41 26.61873 36.14753 32881 ft 455 kts 316°
2026-04-26 15:41 26.67094 36.10762 32881 ft 454 kts 316°
2026-04-26 15:42 26.72307 36.06773 32887 ft 454 kts 316°
2026-04-26 15:42 26.77486 36.02805 32888 ft 454 kts 316°
2026-04-26 15:43 26.82690 35.98813 32887 ft 454 kts 315°
2026-04-26 15:44 26.90495 35.92818 32893 ft 453 kts 315°
2026-04-26 15:44 26.98283 35.86826 32883 ft 452 kts 315°
2026-04-26 15:45 27.06029 35.80855 32883 ft 452 kts 315°
2026-04-26 15:46 27.13807 35.74851 32884 ft 452 kts 315°
2026-04-26 15:46 27.18114 35.71521 32890 ft 452 kts 315°
2026-04-26 15:47 27.26726 35.64852 32890 ft 452 kts 315°
2026-04-26 15:48 27.31906 35.60836 32884 ft 452 kts 315°
2026-04-26 15:48 27.37087 35.56814 32886 ft 452 kts 315°
2026-04-26 15:49 27.42261 35.52793 32886 ft 452 kts 315°
2026-04-26 15:49 27.47441 35.48763 32886 ft 452 kts 315°
2026-04-26 15:50 27.52584 35.44756 32889 ft 453 kts 315°
2026-04-26 15:50 27.57763 35.40717 32886 ft 453 kts 315°
2026-04-26 15:51 27.62942 35.36673 32882 ft 453 kts 315°
2026-04-26 15:51 27.68125 35.32621 32886 ft 453 kts 315°
2026-04-26 15:52 27.73307 35.28565 32880 ft 454 kts 315°
2026-04-26 15:52 27.78458 35.24530 32887 ft 454 kts 315°
2026-04-26 15:53 27.83646 35.20460 32888 ft 454 kts 315°
2026-04-26 15:53 27.88833 35.16386 32884 ft 454 kts 315°
2026-04-26 15:54 27.94019 35.12308 32868 ft 454 kts 315°
2026-04-26 15:54 27.99171 35.08251 32871 ft 454 kts 315°
2026-04-26 15:55 28.04352 35.04168 32877 ft 454 kts 315°
2026-04-26 15:55 28.09539 35.00074 32876 ft 454 kts 315°
2026-04-26 15:56 28.14721 34.95979 32875 ft 455 kts 315°
2026-04-26 15:56 28.19876 34.91901 32876 ft 455 kts 315°
2026-04-26 15:57 28.25068 34.87789 32875 ft 455 kts 315°
2026-04-26 15:57 28.30262 34.83671 32874 ft 456 kts 315°
2026-04-26 15:58 28.35458 34.79546 32876 ft 456 kts 316°
2026-04-26 15:58 28.40623 34.75440 32884 ft 456 kts 316°
2026-04-26 15:59 28.45825 34.71299 32878 ft 457 kts 316°
2026-04-26 15:59 28.51030 34.67152 32880 ft 457 kts 316°
2026-04-26 16:00 28.56238 34.62997 32883 ft 457 kts 316°
2026-04-26 16:00 28.61446 34.58836 32886 ft 458 kts 316°
2026-04-26 16:01 28.66623 34.54697 32881 ft 458 kts 315°
2026-04-26 16:01 28.71837 34.50515 32905 ft 460 kts 316°
2026-04-26 16:02 28.77076 34.46316 32896 ft 461 kts 316°
2026-04-26 16:02 28.82321 34.42108 32913 ft 461 kts 316°
2026-04-26 16:03 28.87523 34.37930 32916 ft 460 kts 316°
2026-04-26 16:03 28.92745 34.33727 32930 ft 459 kts 315°
2026-04-26 16:04 28.97971 34.29514 32927 ft 460 kts 315°
2026-04-26 16:04 29.03194 34.25300 32941 ft 460 kts 315°
2026-04-26 16:05 29.08385 34.21107 32943 ft 461 kts 315°
2026-04-26 16:05 29.13620 34.16870 32955 ft 461 kts 315°
2026-04-26 16:06 29.18863 34.12623 32952 ft 462 kts 316°
2026-04-26 16:06 29.24106 34.08373 32961 ft 462 kts 316°
2026-04-26 16:07 29.29317 34.04142 32949 ft 462 kts 316°
2026-04-26 16:07 29.34559 33.99881 32950 ft 462 kts 316°
2026-04-26 16:08 29.39804 33.95611 32942 ft 462 kts 316°
2026-04-26 16:08 29.45047 33.91337 32941 ft 462 kts 316°
2026-04-26 16:09 29.50288 33.87059 32940 ft 462 kts 316°
2026-04-26 16:09 29.55494 33.82805 32939 ft 462 kts 316°
2026-04-26 16:10 29.60723 33.78526 32928 ft 461 kts 316°
2026-04-26 16:10 29.65953 33.74241 32933 ft 461 kts 316°
2026-04-26 16:11 29.71177 33.69956 32937 ft 461 kts 316°
2026-04-26 16:11 29.76363 33.65694 32944 ft 462 kts 316°
2026-04-26 16:12 29.81591 33.61393 32950 ft 462 kts 316°
2026-04-26 16:12 29.89431 33.54934 32948 ft 462 kts 316°
2026-04-26 16:13 29.94656 33.50622 32944 ft 462 kts 316°
2026-04-26 16:13 29.99846 33.46334 32947 ft 462 kts 316°
2026-04-26 16:14 30.05066 33.42014 32953 ft 462 kts 316°
2026-04-26 16:15 30.12899 33.35521 32963 ft 462 kts 316°
2026-04-26 16:15 30.18122 33.31185 32952 ft 462 kts 316°
2026-04-26 16:16 30.25918 33.24701 32956 ft 462 kts 316°
2026-04-26 16:16 30.31139 33.20352 32959 ft 463 kts 316°
2026-04-26 16:17 30.36366 33.15993 32960 ft 463 kts 316°
2026-04-26 16:17 30.41596 33.11624 32962 ft 464 kts 316°
2026-04-26 16:18 30.49412 33.05085 32971 ft 464 kts 316°
2026-04-26 16:19 30.57273 32.98495 32972 ft 465 kts 316°
2026-04-26 16:20 30.64256 32.92630 32981 ft 466 kts 316°
2026-04-26 16:20 30.72983 32.85285 32976 ft 466 kts 316°
2026-04-26 16:21 30.78236 32.80856 32976 ft 467 kts 317°
2026-04-26 16:21 30.82606 32.77166 32982 ft 467 kts 317°
2026-04-26 16:22 30.87866 32.72719 32978 ft 468 kts 317°
2026-04-26 16:22 30.93131 32.68262 32978 ft 468 kts 317°
2026-04-26 16:23 30.98401 32.63795 32986 ft 469 kts 317°
2026-04-26 16:23 31.03638 32.59349 32978 ft 469 kts 317°
2026-04-26 16:24 31.08912 32.54866 32976 ft 469 kts 317°
2026-04-26 16:24 31.14190 32.50373 32976 ft 470 kts 317°
2026-04-26 16:25 31.19468 32.45874 32976 ft 470 kts 317°
2026-04-26 16:25 31.24751 32.41364 32972 ft 470 kts 317°
2026-04-26 16:26 31.29999 32.36877 32966 ft 471 kts 317°
2026-04-26 16:26 31.35286 32.32352 32976 ft 471 kts 317°
2026-04-26 16:27 31.40570 32.27821 32957 ft 471 kts 317°
2026-04-26 16:27 31.45856 32.23283 32962 ft 471 kts 317°
2026-04-26 16:28 31.51107 32.18768 32967 ft 471 kts 317°
2026-04-26 16:28 31.56396 32.14215 32966 ft 472 kts 317°
2026-04-26 16:29 31.61685 32.09654 32971 ft 472 kts 317°
2026-04-26 16:29 31.66975 32.05086 32968 ft 472 kts 317°
2026-04-26 16:30 31.72228 32.00543 32967 ft 472 kts 317°
2026-04-26 16:30 31.77512 31.95968 32965 ft 472 kts 317°
2026-04-26 16:31 31.82798 31.91384 32961 ft 472 kts 317°
2026-04-26 16:31 31.88081 31.86796 32968 ft 472 kts 317°
2026-04-26 16:32 31.93324 31.82235 32961 ft 472 kts 317°
2026-04-26 16:32 31.98603 31.77637 32958 ft 472 kts 317°
2026-04-26 16:33 32.03879 31.73034 32962 ft 472 kts 317°
2026-04-26 16:33 32.09158 31.68422 32963 ft 472 kts 317°
2026-04-26 16:34 32.14439 31.63801 32958 ft 473 kts 317°
2026-04-26 16:34 32.19684 31.59206 32955 ft 473 kts 317°
2026-04-26 16:35 32.24964 31.54573 32955 ft 473 kts 317°
2026-04-26 16:35 32.30244 31.49932 32949 ft 473 kts 317°
2026-04-26 16:36 32.35526 31.45284 32954 ft 474 kts 317°
2026-04-26 16:36 32.40777 31.40655 32954 ft 474 kts 318°
2026-04-26 16:37 32.46075 31.35977 32952 ft 475 kts 318°
2026-04-26 16:37 32.51378 31.31289 32952 ft 476 kts 318°
2026-04-26 16:38 32.56708 31.26614 32948 ft 478 kts 320°
2026-04-26 16:38 32.62504 31.22723 32953 ft 485 kts 329°
2026-04-26 16:39 32.68597 31.19244 32949 ft 487 kts 329°
2026-04-26 16:39 32.74700 31.15736 32944 ft 487 kts 329°
2026-04-26 16:40 32.80786 31.12184 32934 ft 488 kts 329°
2026-04-26 16:40 32.86833 31.08636 32939 ft 488 kts 329°
2026-04-26 16:41 32.92927 31.05055 32937 ft 488 kts 329°
2026-04-26 16:41 32.99019 31.01473 32937 ft 489 kts 329°
2026-04-26 16:42 33.05119 30.97880 32938 ft 489 kts 329°
2026-04-26 16:42 33.11154 30.94258 32936 ft 488 kts 327°
2026-04-26 16:43 33.17041 30.90256 32937 ft 487 kts 325°
2026-04-26 16:43 33.22893 30.86165 32938 ft 488 kts 325°
2026-04-26 16:44 33.28757 30.82083 32934 ft 488 kts 326°
2026-04-26 16:44 33.34640 30.78009 32936 ft 489 kts 326°
2026-04-26 16:45 33.40487 30.73963 32935 ft 489 kts 326°
2026-04-26 16:45 33.46302 30.69933 32935 ft 490 kts 326°
2026-04-26 16:46 33.52162 30.65863 32932 ft 490 kts 326°
2026-04-26 16:46 33.58066 30.61756 32934 ft 490 kts 326°
2026-04-26 16:47 33.63977 30.57637 32932 ft 491 kts 326°
2026-04-26 16:47 33.69854 30.53535 32935 ft 491 kts 326°
2026-04-26 16:48 33.75784 30.49391 32930 ft 492 kts 326°
2026-04-26 16:48 33.81654 30.45281 32936 ft 492 kts 326°
2026-04-26 16:49 33.87590 30.41118 32933 ft 493 kts 326°
2026-04-26 16:49 33.93473 30.36986 32936 ft 493 kts 326°
2026-04-26 16:50 33.99407 30.32811 32930 ft 494 kts 326°
2026-04-26 16:50 34.05341 30.28629 32936 ft 494 kts 326°
2026-04-26 16:51 34.11281 30.24436 32934 ft 495 kts 326°
2026-04-26 16:51 34.17179 30.20265 32938 ft 495 kts 326°
2026-04-26 16:52 34.22135 30.16757 32931 ft 495 kts 326°
2026-04-26 16:52 34.29084 30.11827 32933 ft 496 kts 326°
2026-04-26 16:53 34.34988 30.07631 32937 ft 496 kts 326°
2026-04-26 16:53 34.40940 30.03395 32937 ft 496 kts 326°
2026-04-26 16:54 34.46625 29.98714 32936 ft 492 kts 317°
2026-04-26 16:54 34.51498 29.93029 32946 ft 489 kts 311°
2026-04-26 16:55 34.56231 29.87082 32935 ft 489 kts 310°
2026-04-26 16:55 34.60985 29.81145 32938 ft 490 kts 311°
2026-04-26 16:56 34.68129 29.72289 32947 ft 491 kts 311°
2026-04-26 16:57 34.72883 29.66391 32948 ft 491 kts 311°
2026-04-26 16:57 34.80069 29.57451 32953 ft 492 kts 311°
2026-04-26 16:58 34.84026 29.52516 32944 ft 493 kts 311°
2026-04-26 16:59 34.92017 29.42530 32944 ft 494 kts 311°
2026-04-26 17:00 35.01870 29.30903 32953 ft 498 kts 320°
2026-04-26 17:00 35.10254 29.23349 32948 ft 500 kts 321°
2026-04-26 17:01 35.15816 29.18335 32956 ft 500 kts 320°
2026-04-26 17:01 35.21411 29.13231 32950 ft 501 kts 320°
2026-04-26 17:02 35.26952 29.08147 32953 ft 501 kts 320°
2026-04-26 17:02 35.32540 29.03011 32951 ft 502 kts 320°
2026-04-26 17:03 35.38129 28.97865 32954 ft 502 kts 320°
2026-04-26 17:03 35.43675 28.92753 32958 ft 502 kts 320°
2026-04-26 17:04 35.49264 28.87596 32968 ft 502 kts 320°
2026-04-26 17:04 35.54847 28.82433 32954 ft 502 kts 320°
2026-04-26 17:05 35.60391 28.77295 32954 ft 502 kts 320°
2026-04-26 17:05 35.66044 28.72047 32959 ft 501 kts 320°
2026-04-26 17:06 35.71569 28.66909 32961 ft 501 kts 321°
2026-04-26 17:06 35.77130 28.61729 32962 ft 501 kts 321°
2026-04-26 17:07 35.82683 28.56546 32964 ft 501 kts 321°
2026-04-26 17:07 35.88234 28.51356 32963 ft 501 kts 321°
2026-04-26 17:08 35.93781 28.46161 32963 ft 501 kts 321°
2026-04-26 17:08 35.99285 28.40995 32966 ft 500 kts 321°
2026-04-26 17:09 36.03887 28.36670 32962 ft 500 kts 321°
2026-04-26 17:09 36.10353 28.30581 32959 ft 500 kts 321°
2026-04-26 17:10 36.15880 28.25366 32950 ft 499 kts 321°
2026-04-26 17:10 36.21355 28.20191 32947 ft 498 kts 321°
2026-04-26 17:11 36.26858 28.14979 32941 ft 497 kts 322°
2026-04-26 17:11 36.32346 28.09775 32943 ft 496 kts 322°
2026-04-26 17:12 36.40096 28.01306 32942 ft 494 kts 316°
2026-04-26 17:13 36.47557 27.92572 32944 ft 493 kts 316°
2026-04-26 17:14 36.55061 27.83851 32947 ft 492 kts 317°
2026-04-26 17:14 36.62526 27.75181 32955 ft 491 kts 317°
2026-04-26 17:15 36.70007 27.66465 32960 ft 490 kts 317°
2026-04-26 17:16 36.74986 27.60649 32967 ft 490 kts 317°
2026-04-26 17:16 36.79956 27.54832 32962 ft 490 kts 317°
2026-04-26 17:17 36.84881 27.49057 32972 ft 489 kts 317°
2026-04-26 17:17 36.89830 27.43243 32980 ft 488 kts 317°
2026-04-26 17:18 36.94768 27.37431 32982 ft 487 kts 317°
2026-04-26 17:18 36.99695 27.31623 32984 ft 486 kts 317°
2026-04-26 17:19 37.07036 27.22946 32985 ft 486 kts 317°
2026-04-26 17:19 37.11942 27.17135 32981 ft 485 kts 317°
2026-04-26 17:20 37.16014 27.12303 32973 ft 485 kts 317°
2026-04-26 17:20 37.21736 27.05500 32973 ft 485 kts 317°
2026-04-26 17:21 37.26594 26.99711 32983 ft 485 kts 317°
2026-04-26 17:21 37.31482 26.93877 32985 ft 484 kts 317°
2026-04-26 17:22 37.36363 26.88040 32972 ft 484 kts 317°
2026-04-26 17:22 37.41271 26.82254 32958 ft 483 kts 320°
2026-04-26 17:23 37.46369 26.76751 32953 ft 482 kts 321°
2026-04-26 17:23 37.51492 26.71303 32954 ft 482 kts 321°
2026-04-26 17:24 37.56551 26.65859 32951 ft 481 kts 321°
2026-04-26 17:24 37.61630 26.60358 32962 ft 481 kts 320°
2026-04-26 17:25 37.66701 26.54856 32968 ft 480 kts 320°
2026-04-26 17:25 37.71762 26.49351 32989 ft 480 kts 320°
2026-04-26 17:26 37.76773 26.43873 32995 ft 479 kts 320°
2026-04-26 17:26 37.81813 26.38353 33000 ft 479 kts 320°
2026-04-26 17:27 37.84318 26.35606 32884 ft 471 kts 321°
2026-04-26 17:27 37.86755 26.32929 32930 ft 458 kts 321°
2026-04-26 17:27 37.91529 26.27702 33004 ft 455 kts 321°
2026-04-26 17:28 37.96335 26.22440 33007 ft 458 kts 321°
2026-04-26 17:28 38.01138 26.17164 33004 ft 461 kts 321°
2026-04-26 17:29 38.05196 26.12699 32992 ft 461 kts 320°
2026-04-26 17:29 38.10820 26.06504 32988 ft 460 kts 320°
2026-04-26 17:30 38.15639 26.01185 32983 ft 458 kts 320°
2026-04-26 17:30 38.20399 25.95920 32980 ft 456 kts 320°
2026-04-26 17:31 38.25184 25.90638 32979 ft 454 kts 321°
2026-04-26 17:31 38.30155 25.85689 32985 ft 453 kts 323°
2026-04-26 17:32 38.35186 25.80845 32998 ft 453 kts 323°
2026-04-26 17:32 38.40178 25.76018 33004 ft 454 kts 323°
2026-04-26 17:33 38.45196 25.71131 33015 ft 454 kts 323°
2026-04-26 17:34 38.52710 25.63774 33016 ft 454 kts 323°
2026-04-26 17:34 38.57688 25.58889 33016 ft 454 kts 323°
2026-04-26 17:35 38.62695 25.53966 33014 ft 454 kts 323°
2026-04-26 17:35 38.67703 25.49035 33018 ft 454 kts 322°
2026-04-26 17:36 38.72705 25.44100 33015 ft 454 kts 322°
2026-04-26 17:36 38.77702 25.39161 33018 ft 454 kts 322°
2026-04-26 17:37 38.82663 25.34249 33017 ft 453 kts 322°
2026-04-26 17:37 38.87651 25.29303 33018 ft 453 kts 322°
2026-04-26 17:38 38.95133 25.21863 33013 ft 453 kts 322°
2026-04-26 17:38 39.00088 25.16926 33017 ft 454 kts 322°
2026-04-26 17:39 39.05073 25.11950 33016 ft 454 kts 322°
2026-04-26 17:39 39.10060 25.06963 33019 ft 454 kts 322°
2026-04-26 17:40 39.14201 25.02814 33015 ft 454 kts 322°
2026-04-26 17:40 39.19991 24.97004 33013 ft 454 kts 321°
2026-04-26 17:41 39.24972 24.91995 33012 ft 454 kts 321°
2026-04-26 17:41 39.29950 24.86979 33013 ft 454 kts 321°
2026-04-26 17:42 39.34928 24.81955 33013 ft 454 kts 321°
2026-04-26 17:42 39.39870 24.76957 33012 ft 454 kts 321°
2026-04-26 17:43 39.44842 24.71920 33013 ft 454 kts 321°
2026-04-26 17:43 39.49816 24.66871 33008 ft 454 kts 321°
2026-04-26 17:44 39.54789 24.61814 33010 ft 455 kts 321°
2026-04-26 17:44 39.59760 24.56750 33013 ft 455 kts 321°
2026-04-26 17:45 39.64704 24.51703 33009 ft 455 kts 321°
2026-04-26 17:45 39.69676 24.46618 33008 ft 455 kts 321°
2026-04-26 17:46 39.74649 24.41523 33009 ft 455 kts 321°
2026-04-26 17:46 39.79622 24.36419 33008 ft 456 kts 321°
2026-04-26 17:47 39.83757 24.32167 33007 ft 456 kts 321°
2026-04-26 17:47 39.89532 24.26217 33008 ft 456 kts 320°
2026-04-26 17:48 39.94502 24.21085 33007 ft 456 kts 320°
2026-04-26 17:48 39.99471 24.15946 33007 ft 456 kts 320°
2026-04-26 17:49 40.04403 24.10835 32999 ft 456 kts 320°
2026-04-26 17:49 40.09370 24.05678 33000 ft 456 kts 320°
2026-04-26 17:50 40.14337 24.00511 33002 ft 456 kts 320°
2026-04-26 17:50 40.19306 23.95331 32996 ft 457 kts 320°
2026-04-26 17:51 40.24275 23.90142 32995 ft 457 kts 320°
2026-04-26 17:51 40.29206 23.84983 32993 ft 457 kts 320°
2026-04-26 17:52 40.34177 23.79771 32990 ft 458 kts 320°
2026-04-26 17:52 40.39144 23.74554 32986 ft 458 kts 320°
2026-04-26 17:53 40.44114 23.69323 32982 ft 458 kts 320°
2026-04-26 17:54 40.51547 23.61481 32978 ft 459 kts 320°
2026-04-26 17:54 40.56524 23.56218 32983 ft 459 kts 320°
2026-04-26 17:55 40.61497 23.50948 32978 ft 459 kts 320°
2026-04-26 17:55 40.66438 23.45702 32976 ft 459 kts 320°
2026-04-26 17:56 40.71408 23.40414 32969 ft 459 kts 320°
2026-04-26 17:57 40.81351 23.29805 32965 ft 460 kts 320°
2026-04-26 17:57 40.86331 23.24475 32972 ft 461 kts 320°
2026-04-26 17:58 40.96272 23.13803 32974 ft 462 kts 320°
2026-04-26 17:59 41.03758 23.05737 32977 ft 463 kts 320°
2026-04-26 17:59 41.08705 23.00353 32981 ft 463 kts 318°
2026-04-26 18:00 41.13135 22.94180 32988 ft 462 kts 309°
2026-04-26 18:00 41.17238 22.87607 32963 ft 463 kts 309°
2026-04-26 18:01 41.21372 22.81050 32994 ft 463 kts 310°
2026-04-26 18:01 41.25528 22.74510 32988 ft 464 kts 310°
2026-04-26 18:02 41.28370 22.70272 32997 ft 464 kts 312°
2026-04-26 18:02 41.34200 22.61857 33007 ft 465 kts 312°
2026-04-26 18:03 41.38575 22.55495 33007 ft 466 kts 312°
2026-04-26 18:03 41.42902 22.49147 33011 ft 466 kts 311°
2026-04-26 18:04 41.47248 22.42740 33025 ft 466 kts 311°
2026-04-26 18:05 41.53774 22.33096 33023 ft 467 kts 311°
2026-04-26 18:05 41.58125 22.26650 33017 ft 467 kts 311°
2026-04-26 18:06 41.62444 22.20238 33015 ft 468 kts 311°
2026-04-26 18:06 41.66794 22.13767 33019 ft 468 kts 311°
2026-04-26 18:07 41.71143 22.07281 33023 ft 468 kts 311°
2026-04-26 18:07 41.75492 22.00783 33028 ft 469 kts 311°
2026-04-26 18:08 41.79842 21.94268 33034 ft 469 kts 311°
2026-04-26 18:08 41.84156 21.87793 33061 ft 469 kts 311°
2026-04-26 18:09 41.88502 21.81255 33041 ft 469 kts 311°
2026-04-26 18:09 41.92847 21.74706 33049 ft 470 kts 311°
2026-04-26 18:10 41.97191 21.68141 33045 ft 470 kts 311°
2026-04-26 18:10 42.01509 21.61603 33046 ft 471 kts 311°
2026-04-26 18:11 42.05856 21.55005 33048 ft 471 kts 311°
2026-04-26 18:11 42.10202 21.48393 33053 ft 472 kts 311°
2026-04-26 18:12 42.14554 21.41760 33061 ft 472 kts 311°
2026-04-26 18:12 42.18871 21.35081 33071 ft 473 kts 310°
2026-04-26 18:13 42.23098 21.28361 33083 ft 473 kts 309°
2026-04-26 18:13 42.27343 21.21585 33094 ft 473 kts 310°
2026-04-26 18:14 42.31598 21.14804 33108 ft 473 kts 310°
2026-04-26 18:14 42.35852 21.08019 33120 ft 473 kts 310°
2026-04-26 18:15 42.40075 21.01269 33124 ft 474 kts 309°
2026-04-26 18:15 42.44331 20.94452 33126 ft 474 kts 309°
2026-04-26 18:16 42.48583 20.87622 33126 ft 474 kts 309°
2026-04-26 18:16 42.54953 20.77363 33118 ft 474 kts 309°
2026-04-26 18:17 42.59165 20.70561 33113 ft 474 kts 309°
2026-04-26 18:17 42.63399 20.63705 33111 ft 474 kts 309°
2026-04-26 18:18 42.67628 20.56842 33109 ft 473 kts 309°
2026-04-26 18:18 42.71849 20.49975 33115 ft 473 kts 309°
2026-04-26 18:19 42.76034 20.43150 33119 ft 473 kts 309°
2026-04-26 18:19 42.80245 20.36271 33126 ft 472 kts 309°
2026-04-26 18:20 42.84074 20.29036 33138 ft 471 kts 300°
2026-04-26 18:20 42.86053 20.23776 33139 ft 471 kts 295°
2026-04-26 18:21 42.89754 20.12936 33144 ft 472 kts 295°
2026-04-26 18:21 42.92511 20.04879 33142 ft 472 kts 295°
2026-04-26 18:22 42.95305 19.96763 33140 ft 473 kts 295°
2026-04-26 18:22 42.98105 19.88633 33146 ft 474 kts 295°
2026-04-26 18:23 43.00904 19.80480 33143 ft 474 kts 295°
2026-04-26 18:23 43.03681 19.72366 33145 ft 474 kts 295°
2026-04-26 18:24 43.06466 19.64201 33145 ft 474 kts 295°
2026-04-26 18:24 43.09244 19.56031 33149 ft 474 kts 295°
2026-04-26 18:25 43.12017 19.47853 33147 ft 473 kts 295°
2026-04-26 18:25 43.14783 19.39675 33146 ft 473 kts 295°